SL-12 DEB, 44560

Orbit data source: Space-Track

SL-12 DEB, 44560 is space debris in HEO originally from a launch on Thu, 02 Sep 2010 UTC launched from the Tyuratam Missile And Space Complex (TTMTR). Debris objects in space refer to the collection of defunct objects orbiting the Earth. Examples of debris include non-operational satellites, rocket bodies, and fragments generated from explosions, collisions, or faulty payload assembly.

Loading next visibility...
SL-12 DEB details
Identifier
44560, 2010-041AF
Orbit
HEO
Last TLE update2 days ago
Origin
Flag of CISVVKO VKS (CIS)
ManufacturerRKKE
MissionSpacecraft
Bus & MotorUnknown
MassUnknown
Launch date (UTC)
2010-09-02 (14 years ago)
Launch vehicleUnknown
Launch site
Tyuratam Missile And Space Complex (TTMTR)
Object type
Payload
Rocket body
Debris
Shape & HBRUnknown
Radar Cross SectionMedium (>0.1 m² and <1 m²)

Expand to show TLE details & history

TLE from 2 days ago
0 SL-12 DEB
1 44560U 10041AF  24359.93488453  .00001468  00000-0  36274-2 0  9995
2 44560  65.2804 242.3110 5502477 299.0651  17.0995  4.56890887 86023
Epoch: 2024-12-24T22:26Z
Definitive object data (Epoch: 2024-12-24T22:26:14.023Z)
Latitude0.00002°
Longitude171.81294°
Altitude2,072.813 km
Speed8.269 km/s
True Right ascension16h 09m 13s
True Declination0° 00' 00"
Sunlit
Object was in daylight at TLE epoch
Visualization TLE readout
Latitude-22.05486°
Longitude160.51922°
Altitude1,060.218 km
Speed9.014 km/s
Apparent Right ascension18h 05m 05s
Apparent Declination-43° 11' 25"
Sunlit
Object is in daylight
Visualization observer readout
Local Sidereal Time10:27:01
Azimuth116.506° SE
Elevation-42.161°
Doppler factor1
Orbital elements
Apogee altitude17,402.767 km
Perigee altitude521.094 km
Semi-major axis15,340.067 km
Eccentricity0.5502477
Inclination65.2804°
RAAN242.311°
Arg. of periapsis299.0651°
True anomaly61.19113°
Mean anomaly17.0995°
Eccentric anomaly35.33184°
Mean motion1.14236 °/min
BSTAR0.0036274
Orbital period315.14 mins
Loading maneuver chart data...
Loading historical data...
Loading historical data...
Loading historical data...
Loading historical data...
Loading historical data...
Loading historical data...
Loading historical data...

SL-12 DEB Visibility forecast

Observer location: undefined°, undefined

Span
Click to sort rows by Start time (UTC) header in descending order
Start Az.
Max El. time (UTC)
Max El. Az.
Max El.
End time (UTC)
End Az.
119 mins2024-12-26 16:30:43.910Z166.549° S2024-12-26 16:46:43.910Z93.164° ESE40.413°2024-12-26 18:29:43.910Z34.342° NE
233 mins2024-12-26 22:01:43.910Z286.372° WNW2024-12-26 23:45:43.910Z34.713° NE39.802°2024-12-27 01:54:43.910Z125.156° SE
195 mins2024-12-27 03:57:43.910Z329.534° NNW2024-12-27 05:47:43.910Z292.084° WNW36.311°2024-12-27 07:12:43.910Z228.949° WSW
|